| time (UTC) | temp F | wind direction | speed knots | gust knots | rain 1hr in | rain 24hr in | rain mn in | humidity % | barometer mb |
| 20260904162155 | 57 | 307 | 0.0 | 0.0 | 0.00 | 0.07 | 0.07 | 99 | 1013.6 |
| 20260904161651 | 57 | 308 | 0.0 | 0.0 | 0.00 | 0.07 | 0.07 | 99 | 1013.4 |
| 20260904161146 | 56 | 308 | 0.0 | 0.0 | 0.00 | 0.07 | 0.07 | 99 | 1013.5 |
| 20260904160642 | 56 | 310 | 0.0 | 0.9 | 0.00 | 0.07 | 0.07 | 99 | 1013.5 |
| 20260904160137 | 56 | 308 | 0.0 | 0.0 | 0.07 | 0.07 | 0.07 | 99 | 1013.4 |
| 20260904155632 | 56 | 309 | 0.0 | 0.0 | 0.07 | 0.07 | 0.07 | 99 | 1013.7 |
| 20260904155126 | 55 | 309 | 0.0 | 0.0 | 0.00 | 0.06 | 0.06 | 99 | 1013.7 |
| 20260904154625 | 55 | 312 | 0.0 | 0.0 | 0.00 | 0.06 | 0.06 | 99 | 1013.7 |
| 20260904154125 | 55 | 310 | 0.9 | 0.9 | 0.00 | 0.06 | 0.06 | 99 | 1013.6 |
| 20260904153620 | 55 | 312 | 0.0 | 0.0 | 0.00 | 0.06 | 0.06 | 99 | 1013.6 |
| 20260904153116 | 55 | 312 | 0.0 | 0.0 | 0.00 | 0.06 | 0.06 | 99 | 1013.6 |
| 20260904152612 | 55 | 306 | 0.0 | 0.0 | 0.00 | 0.06 | 0.06 | 99 | 1013.6 |
| 20260904152107 | 54 | 306 | 0.0 | 0.0 | 0.00 | 0.06 | 0.06 | 99 | 1013.5 |
| 20260904151602 | 54 | 306 | 0.0 | 0.0 | 0.00 | 0.06 | 0.06 | 99 | 1013.4 |
| 20260904151101 | 54 | 306 | 0.0 | 0.0 | 0.00 | 0.06 | 0.06 | 99 | 1013.5 |
| 20260904150556 | 54 | 306 | 0.0 | 0.0 | 0.00 | 0.06 | 0.06 | 99 | 1013.4 |
| 20260904150056 | 54 | 306 | 0.0 | 0.0 | 0.00 | 0.06 | 0.06 | 99 | 1013.2 |
| 20260904145555 | 54 | 306 | 0.0 | 0.0 | 0.00 | 0.06 | 0.06 | 99 | 1013.3 |
| 20260904145050 | 54 | 306 | 0.0 | 0.0 | 0.00 | 0.06 | 0.06 | 99 | 1013.2 |
| 20260904144546 | 53 | 306 | 0.0 | 0.0 | 0.00 | 0.06 | 0.06 | 99 | 1013.0 |
| 20260904144042 | 53 | 306 | 0.0 | 0.0 | 0.00 | 0.06 | 0.06 | 99 | 1013.1 |
| 20260904143538 | 53 | 306 | 0.0 | 0.0 | 0.00 | 0.06 | 0.06 | 99 | 1013.0 |
| 20260904143034 | 53 | 306 | 0.0 | 0.0 | 0.00 | 0.06 | 0.06 | 99 | 1012.9 |
| 20260904142531 | 53 | 311 | 0.0 | 0.0 | 0.00 | 0.06 | 0.06 | 99 | 1013.0 |
| 20260904142026 | 53 | 311 | 0.0 | 0.0 | 0.00 | 0.06 | 0.06 | 99 | 1013.0 |
| 20260904141521 | 53 | 311 | 0.0 | 0.0 | 0.00 | 0.06 | 0.06 | 99 | 1012.7 |
| 20260904141017 | 53 | 311 | 0.0 | 0.0 | 0.00 | 0.06 | 0.06 | 99 | 1012.6 |
| 20260904140516 | 53 | 312 | 0.0 | 0.0 | 0.00 | 0.06 | 0.06 | 99 | 1012.6 |
| 20260904140017 | 53 | 313 | 0.0 | 0.0 | 0.00 | 0.06 | 0.06 | 99 | 1012.5 |
| 20260904135515 | 53 | 308 | 0.0 | 0.0 | 0.00 | 0.06 | 0.06 | 99 | 1012.7 |
| 20260904135012 | 53 | 307 | 0.0 | 0.0 | 0.00 | 0.06 | 0.06 | 99 | 1012.6 |
| 20260904134507 | 53 | 314 | 0.0 | 0.0 | 0.05 | 0.06 | 0.06 | 99 | 1012.5 |
| 20260904134001 | 53 | 313 | 0.0 | 0.0 | 0.05 | 0.06 | 0.06 | 99 | 1012.5 |
| 20260904133455 | 53 | 305 | 0.0 | 0.0 | 0.00 | 0.05 | 0.05 | 99 | 1012.6 |
| 20260904132951 | 53 | 305 | 0.0 | 0.0 | 0.00 | 0.05 | 0.05 | 99 | 1012.5 |
| 20260904132452 | 53 | 305 | 0.0 | 0.0 | 0.00 | 0.05 | 0.05 | 99 | 1012.6 |
| 20260904131946 | 53 | 305 | 0.0 | 0.0 | 0.00 | 0.05 | 0.05 | 99 | 1012.4 |
| 20260904131441 | 53 | 305 | 0.0 | 0.0 | 0.00 | 0.05 | 0.05 | 99 | 1012.3 |
| 20260904130937 | 53 | 305 | 0.0 | 0.0 | 0.00 | 0.05 | 0.05 | 99 | 1012.4 |
| 20260904130436 | 53 | 305 | 0.0 | 0.0 | 0.00 | 0.05 | 0.05 | 99 | 1012.3 |
| 20260904125930 | 53 | 305 | 0.0 | 0.0 | 0.00 | 0.05 | 0.05 | 99 | 1012.4 |
| 20260904125427 | 53 | 305 | 0.0 | 0.0 | 0.00 | 0.05 | 0.05 | 99 | 1012.3 |
| 20260904124926 | 53 | 305 | 0.0 | 0.0 | 0.00 | 0.05 | 0.05 | 99 | 1012.2 |
| 20260904124423 | 53 | 305 | 0.0 | 0.0 | 0.00 | 0.05 | 0.05 | 99 | 1012.1 |
| 20260904123919 | 53 | 305 | 0.0 | 0.0 | 0.00 | 0.05 | 0.05 | 99 | 1012.3 |
| 20260904123418 | 53 | 305 | 0.0 | 0.0 | 0.00 | 0.05 | 0.05 | 99 | 1012.1 |
| 20260904122914 | 53 | 305 | 0.0 | 0.0 | 0.00 | 0.05 | 0.05 | 99 | 1012.1 |
| 20260904122413 | 53 | 305 | 0.0 | 0.0 | 0.00 | 0.05 | 0.05 | 99 | 1012.1 |
| 20260904121908 | 53 | 305 | 0.0 | 0.0 | 0.00 | 0.05 | 0.05 | 99 | 1011.8 |
| 20260904121405 | 53 | 305 | 0.0 | 0.0 | 0.00 | 0.05 | 0.05 | 99 | 1011.9 |
| 20260904120901 | 53 | 305 | 0.0 | 0.0 | 0.00 | 0.05 | 0.05 | 99 | 1011.8 |
| 20260904120356 | 53 | 305 | 0.0 | 0.0 | 0.00 | 0.05 | 0.05 | 99 | 1011.7 |
| 20260904115852 | 53 | 305 | 0.0 | 0.0 | 0.00 | 0.05 | 0.05 | 99 | 1011.8 |
| 20260904115346 | 53 | 305 | 0.0 | 0.0 | 0.07 | 0.05 | 0.05 | 99 | 1011.7 |
| 20260904114841 | 53 | 305 | 0.0 | 0.0 | 0.07 | 0.05 | 0.05 | 99 | 1011.9 |
| 20260904114336 | 53 | 305 | 0.0 | 0.0 | 0.05 | 0.04 | 0.04 | 99 | 1011.9 |
| 20260904113831 | 53 | 305 | 0.0 | 0.0 | 0.05 | 0.04 | 0.04 | 99 | 1011.9 |
| 20260904113330 | 53 | 305 | 0.0 | 0.0 | 0.00 | 0.03 | 0.03 | 99 | 1011.7 |
| 20260904112825 | 53 | 305 | 0.0 | 0.0 | 0.00 | 0.03 | 0.03 | 99 | 1011.8 |
| 20260904112321 | 53 | 305 | 0.0 | 0.0 | 0.07 | 0.03 | 0.03 | 99 | 1011.6 |
| 20260904111816 | 53 | 305 | 0.0 | 0.0 | 0.07 | 0.03 | 0.03 | 99 | 1011.8 |
| 20260904111312 | 54 | 305 | 0.0 | 0.0 | 0.05 | 0.02 | 0.02 | 99 | 1011.5 |
| 20260904110808 | 53 | 305 | 0.0 | 0.0 | 0.05 | 0.02 | 0.02 | 99 | 1011.4 |
| 20260904110306 | 53 | 305 | 0.0 | 0.0 | 0.05 | 0.02 | 0.02 | 99 | 1011.5 |
| 20260904105801 | 53 | 305 | 0.0 | 0.0 | 0.07 | 0.01 | 0.01 | 99 | 1011.8 |
| 20260904105256 | 53 | 305 | 0.0 | 0.0 | 0.07 | 0.01 | 0.01 | 99 | 1011.5 |
| 20260904104751 | 53 | 305 | 0.0 | 0.0 | 0.00 | 0.00 | 0.00 | 99 | 1011.7 |
| 20260904104247 | 53 | 305 | 0.0 | 0.0 | 0.00 | 0.00 | 0.00 | 99 | 1011.5 |
| 20260904103744 | 53 | 305 | 0.0 | 0.0 | 0.00 | 0.00 | 0.00 | 99 | 1011.6 |
| 20260904103238 | 53 | 305 | 0.0 | 0.0 | 0.00 | 0.00 | 0.00 | 99 | 1011.4 |
| 20260904102733 | 53 | 305 | 0.0 | 0.0 | 0.00 | 0.00 | 0.00 | 99 | 1011.5 |
| 20260904102229 | 53 | 305 | 0.0 | 0.0 | 0.00 | 0.00 | 0.00 | 99 | 1011.3 |
| 20260904101725 | 53 | 305 | 0.0 | 0.0 | 0.00 | 0.00 | 0.00 | 99 | 1011.5 |
| 20260904101221 | 53 | 305 | 0.0 | 0.0 | 0.00 | 0.00 | 0.00 | 99 | 1011.4 |
| 20260904100717 | 53 | 305 | 0.0 | 0.0 | 0.00 | 0.00 | 0.00 | 99 | 1011.4 |
| 20260904100213 | 53 | 305 | 0.0 | 0.0 | 0.00 | 0.00 | 0.00 | 99 | 1011.4 |
| 20260904095712 | 53 | 305 | 0.0 | 0.0 | 0.00 | 0.00 | 0.00 | 99 | 1011.4 |
| 20260904095206 | 53 | 305 | 0.0 | 0.0 | 0.00 | 0.00 | 0.00 | 99 | 1011.4 |
| 20260904094702 | 53 | 305 | 0.0 | 0.0 | 0.00 | 0.00 | 0.00 | 99 | 1011.0 |
| 20260904094156 | 53 | 305 | 0.0 | 0.0 | 0.00 | 0.00 | 0.00 | 99 | 1011.1 |
| 20260904093654 | 53 | 305 | 0.0 | 0.0 | 0.00 | 0.00 | 0.00 | 99 | 1011.1 |
| 20260904093153 | 53 | 305 | 0.0 | 0.0 | 0.00 | 0.00 | 0.00 | 99 | 1011.2 |
| 20260904092649 | 53 | 305 | 0.0 | 0.0 | 0.00 | 0.00 | 0.00 | 99 | 1011.2 |
| 20260904092145 | 53 | 305 | 0.0 | 0.0 | 0.00 | 0.00 | 0.00 | 99 | 1011.3 |
| 20260904091641 | 53 | 305 | 0.0 | 0.0 | 0.00 | 0.00 | 0.00 | 99 | 1011.1 |
| 20260904091140 | 53 | 305 | 0.0 | 0.0 | 0.00 | 0.00 | 0.00 | 99 | 1011.1 |
| 20260904090636 | 54 | 305 | 0.0 | 0.0 | 0.00 | 0.00 | 0.00 | 99 | 1011.4 |
| 20260904090132 | 54 | 305 | 0.0 | 0.0 | 0.00 | 0.00 | 0.00 | 99 | 1011.2 |
| 20260904085631 | 54 | 305 | 0.0 | 0.0 | 0.00 | 0.00 | 0.00 | 99 | 1010.9 |
| 20260904085126 | 54 | 305 | 0.0 | 0.0 | 0.00 | 0.00 | 0.00 | 99 | 1011.0 |
| 20260904084621 | 54 | 305 | 0.0 | 0.0 | 0.00 | 0.00 | 0.00 | 99 | 1011.1 |
| 20260904084118 | 54 | 305 | 0.0 | 0.0 | 0.00 | 0.00 | 0.00 | 99 | 1011.0 |
| 20260904083614 | 54 | 305 | 0.0 | 0.0 | 0.00 | 0.00 | 0.00 | 99 | 1011.1 |
| 20260904083109 | 54 | 305 | 0.0 | 0.0 | 0.00 | 0.00 | 0.00 | 99 | 1011.0 |
| 20260904082604 | 54 | 305 | 0.0 | 0.0 | 0.00 | 0.00 | 0.00 | 99 | 1011.0 |
| 20260904082100 | 54 | 305 | 0.0 | 0.0 | 0.00 | 0.00 | 0.00 | 99 | 1011.2 |
| 20260904081555 | 54 | 305 | 0.0 | 0.0 | 0.00 | 0.00 | 0.00 | 99 | 1011.3 |
| 20260904081050 | 55 | 305 | 0.0 | 0.0 | 0.00 | 0.00 | 0.00 | 99 | 1011.1 |
| 20260904080546 | 55 | 305 | 0.0 | 0.0 | 0.00 | 0.00 | 0.00 | 99 | 1011.1 |
| 20260904080042 | 55 | 305 | 0.0 | 0.0 | 0.00 | 0.00 | 0.00 | 99 | 1011.3 |
| 20260904075537 | 55 | 305 | 0.0 | 0.0 | 0.00 | 0.00 | 0.00 | 99 | 1011.1 |
| 20260904075032 | 55 | 305 | 0.0 | 0.0 | 0.00 | 0.00 | 0.00 | 99 | 1011.3 |
| 20260904074531 | 55 | 305 | 0.0 | 0.0 | 0.00 | 0.00 | 0.00 | 99 | 1011.3 |
| 20260904074026 | 55 | 305 | 0.0 | 0.0 | 0.00 | 0.00 | 0.00 | 99 | 1011.2 |
| 20260904073521 | 55 | 305 | 0.0 | 0.0 | 0.00 | 0.00 | 0.00 | 99 | 1011.2 |
| 20260904073018 | 55 | 305 | 0.0 | 0.0 | 0.00 | 0.00 | 0.00 | 99 | 1011.1 |
| 20260904072513 | 55 | 305 | 0.0 | 0.0 | 0.00 | 0.00 | 0.00 | 99 | 1010.9 |
| 20260904072008 | 55 | 305 | 0.0 | 0.0 | 0.00 | 0.00 | 0.00 | 99 | 1011.1 |
| 20260904071503 | 55 | 305 | 0.0 | 0.0 | 0.00 | 0.00 | 0.00 | 99 | 1011.0 |
| 20260904070958 | 55 | 305 | 0.0 | 0.9 | 0.00 | 0.00 | 0.00 | 99 | 1011.1 |
| 20260904070456 | 55 | 305 | 0.0 | 0.0 | 0.00 | 0.00 | 0.00 | 99 | 1011.2 |
| 20260904065951 | 55 | 305 | 0.0 | 0.0 | 0.00 | 0.23 | 0.23 | 99 | 1011.1 |
| 20260904065447 | 55 | 305 | 0.0 | 0.0 | 0.00 | 0.23 | 0.23 | 99 | 1011.0 |
| 20260904064942 | 55 | 305 | 0.0 | 0.0 | 0.00 | 0.23 | 0.23 | 99 | 1011.3 |
| 20260904064439 | 55 | 305 | 0.0 | 0.0 | 0.00 | 0.23 | 0.23 | 99 | 1011.0 |
| 20260904063933 | 55 | 305 | 0.0 | 0.0 | 0.00 | 0.23 | 0.23 | 99 | 1011.0 |
| 20260904063430 | 55 | 305 | 0.0 | 0.0 | 0.00 | 0.23 | 0.23 | 99 | 1011.0 |
| 20260904062925 | 55 | 305 | 0.0 | 0.0 | 0.00 | 0.23 | 0.23 | 99 | 1010.9 |
| 20260904062421 | 55 | 305 | 0.0 | 0.0 | 0.00 | 0.23 | 0.23 | 99 | 1011.0 |
| 20260904061916 | 55 | 305 | 0.0 | 0.0 | 0.00 | 0.23 | 0.23 | 99 | 1011.0 |
| 20260904061413 | 55 | 305 | 0.0 | 0.0 | 0.00 | 0.23 | 0.23 | 99 | 1010.9 |
| 20260904060909 | 55 | 305 | 0.0 | 0.0 | 0.00 | 0.23 | 0.23 | 99 | 1010.9 |
| 20260904060404 | 55 | 305 | 0.0 | 0.0 | 0.00 | 0.23 | 0.23 | 99 | 1011.1 |
| 20260904055900 | 55 | 305 | 0.0 | 0.0 | 0.00 | 0.23 | 0.23 | 99 | 1011.1 |
| 20260904055355 | 55 | 305 | 0.0 | 0.0 | 0.00 | 0.23 | 0.23 | 99 | 1011.0 |
| 20260904054850 | 55 | 305 | 0.0 | 0.0 | 0.00 | 0.23 | 0.23 | 99 | 1010.9 |
| 20260904054346 | 55 | 305 | 0.0 | 0.0 | 0.00 | 0.23 | 0.23 | 99 | 1011.1 |
| 20260904053842 | 55 | 305 | 0.0 | 0.0 | 0.00 | 0.23 | 0.23 | 99 | 1011.4 |
| 20260904053341 | 55 | 305 | 0.0 | 0.0 | 0.00 | 0.23 | 0.23 | 99 | 1011.0 |
| 20260904052837 | 55 | 305 | 0.0 | 0.0 | 0.00 | 0.23 | 0.23 | 99 | 1011.1 |
| 20260904052333 | 55 | 305 | 0.0 | 0.0 | 0.00 | 0.23 | 0.23 | 99 | 1011.2 |
| 20260904051829 | 55 | 305 | 0.0 | 0.0 | 0.00 | 0.23 | 0.23 | 99 | 1011.2 |
| 20260904051325 | 55 | 305 | 0.0 | 0.0 | 0.00 | 0.23 | 0.23 | 99 | 1011.2 |
| 20260904050819 | 55 | 305 | 0.0 | 0.0 | 0.00 | 0.23 | 0.23 | 99 | 1011.0 |
| 20260904050317 | 55 | 305 | 0.0 | 0.0 | 0.00 | 0.23 | 0.23 | 99 | 1011.3 |
| 20260904045816 | 55 | 305 | 0.0 | 0.0 | 0.00 | 0.23 | 0.23 | 99 | 1011.3 |
| 20260904045311 | 55 | 305 | 0.0 | 0.0 | 0.00 | 0.23 | 0.23 | 98 | 1011.2 |
| 20260904044806 | 55 | 305 | 0.0 | 0.0 | 0.00 | 0.23 | 0.23 | 98 | 1011.3 |
| 20260904044303 | 55 | 305 | 0.0 | 0.0 | 0.00 | 0.23 | 0.23 | 98 | 1011.4 |
| 20260904043758 | 55 | 305 | 0.0 | 0.0 | 0.00 | 0.23 | 0.23 | 98 | 1011.4 |
| 20260904043254 | 55 | 305 | 0.0 | 0.0 | 0.00 | 0.23 | 0.23 | 98 | 1011.3 |
| 20260904042749 | 55 | 304 | 0.0 | 0.0 | 0.00 | 0.23 | 0.23 | 98 | 1011.4 |
| 20260904042246 | 55 | 304 | 0.0 | 0.0 | 0.00 | 0.23 | 0.23 | 98 | 1011.3 |
| 20260904041745 | 55 | 304 | 0.0 | 0.0 | 0.00 | 0.23 | 0.23 | 97 | 1011.2 |
| 20260904041242 | 55 | 304 | 0.0 | 0.0 | 0.00 | 0.23 | 0.23 | 97 | 1011.5 |
| 20260904040737 | 55 | 304 | 0.0 | 0.0 | 0.00 | 0.23 | 0.23 | 97 | 1011.2 |
| 20260904040232 | 55 | 304 | 0.0 | 0.0 | 0.00 | 0.23 | 0.23 | 97 | 1011.2 |
| 20260904035729 | 55 | 304 | 0.0 | 0.0 | 0.00 | 0.23 | 0.23 | 97 | 1011.3 |
| 20260904035224 | 55 | 321 | 0.0 | 0.0 | 0.00 | 0.23 | 0.23 | 97 | 1011.4 |
| 20260904034722 | 55 | 321 | 0.0 | 0.0 | 0.00 | 0.23 | 0.23 | 96 | 1011.3 |
| 20260904034218 | 55 | 321 | 0.0 | 0.0 | 0.00 | 0.23 | 0.23 | 96 | 1011.1 |
| 20260904033714 | 55 | 321 | 0.0 | 0.0 | 0.00 | 0.23 | 0.23 | 96 | 1011.1 |
| 20260904033211 | 55 | 321 | 0.0 | 0.0 | 0.00 | 0.23 | 0.23 | 95 | 1011.0 |
| 20260904032707 | 55 | 321 | 0.0 | 0.0 | 0.00 | 0.23 | 0.23 | 95 | 1011.0 |
| 20260904032206 | 55 | 321 | 0.0 | 0.0 | 0.00 | 0.23 | 0.23 | 95 | 1011.0 |
| 20260904031706 | 55 | 321 | 0.0 | 0.0 | 0.00 | 0.23 | 0.23 | 94 | 1010.8 |
| 20260904031201 | 56 | 321 | 0.0 | 0.0 | 0.00 | 0.23 | 0.23 | 94 | 1010.7 |
| 20260904030657 | 56 | 321 | 0.0 | 0.0 | 0.00 | 0.23 | 0.23 | 93 | 1010.8 |
| 20260904030152 | 56 | 321 | 0.0 | 0.0 | 0.00 | 0.23 | 0.23 | 92 | 1010.7 |
| 20260904025648 | 56 | 321 | 0.0 | 0.0 | 0.00 | 0.23 | 0.23 | 92 | 1010.7 |
| 20260904025143 | 57 | 321 | 0.0 | 0.0 | 0.00 | 0.23 | 0.23 | 91 | 1010.6 |
| 20260904024638 | 57 | 321 | 0.0 | 0.0 | 0.00 | 0.23 | 0.23 | 90 | 1010.5 |
| 20260904024134 | 57 | 321 | 0.0 | 0.0 | 0.00 | 0.23 | 0.23 | 89 | 1010.6 |
| 20260904023630 | 58 | 321 | 0.0 | 0.0 | 0.00 | 0.23 | 0.23 | 89 | 1010.5 |
| 20260904023126 | 58 | 321 | 0.0 | 0.0 | 0.00 | 0.23 | 0.23 | 89 | 1010.7 |
| 20260904022625 | 58 | 321 | 0.0 | 0.0 | 0.00 | 0.23 | 0.23 | 89 | 1010.6 |
| 20260904022122 | 59 | 321 | 0.0 | 0.0 | 0.00 | 0.23 | 0.23 | 88 | 1010.5 |
| 20260904021618 | 59 | 321 | 0.0 | 0.0 | 0.00 | 0.23 | 0.23 | 87 | 1010.5 |
| 20260904021113 | 59 | 321 | 0.0 | 0.0 | 0.00 | 0.23 | 0.23 | 87 | 1010.6 |
| 20260904020609 | 59 | 330 | 0.0 | 0.0 | 0.00 | 0.23 | 0.23 | 86 | 1010.6 |
| 20260904015557 | 59 | 322 | 0.0 | 0.9 | 0.00 | 0.23 | 0.23 | 86 | 1010.6 |
| 20260904015056 | 59 | 326 | 0.0 | 0.0 | 0.00 | 0.23 | 0.23 | 86 | 1010.6 |
| 20260904014550 | 59 | 312 | 0.0 | 0.0 | 0.00 | 0.23 | 0.23 | 86 | 1010.5 |
| 20260904014046 | 59 | 338 | 0.0 | 0.0 | 0.00 | 0.23 | 0.23 | 85 | 1010.5 |
| 20260904013542 | 59 | 303 | 0.0 | 0.0 | 0.00 | 0.23 | 0.23 | 86 | 1010.6 |
| 20260904013039 | 59 | 318 | 0.0 | 0.9 | 0.00 | 0.23 | 0.23 | 87 | 1010.8 |
| 20260904012538 | 60 | 132 | 2.6 | 4.3 | 0.00 | 0.23 | 0.23 | 84 | 1010.5 |
| 20260904012032 | 60 | 306 | 0.0 | 0.9 | 0.00 | 0.23 | 0.23 | 84 | 1010.7 |
| 20260904011532 | 60 | 274 | 0.9 | 0.9 | 0.00 | 0.23 | 0.23 | 84 | 1011.0 |
| 20260904011027 | 60 | 308 | 0.0 | 0.0 | 0.00 | 0.23 | 0.23 | 84 | 1010.7 |
| 20260904010524 | 60 | 50 | 0.9 | 0.9 | 0.00 | 0.23 | 0.23 | 85 | 1010.7 |
| 20260904010020 | 60 | 306 | 0.0 | 0.0 | 0.00 | 0.23 | 0.23 | 86 | 1010.7 |
| 20260904005519 | 60 | 328 | 0.0 | 0.9 | 0.00 | 0.23 | 0.23 | 86 | 1010.7 |
| 20260904005015 | 60 | 294 | 0.9 | 0.9 | 0.00 | 0.23 | 0.23 | 84 | 1010.7 |
| 20260904004510 | 60 | 317 | 0.0 | 0.9 | 0.00 | 0.23 | 0.23 | 83 | 1010.6 |
| 20260904004005 | 60 | 307 | 0.0 | 0.0 | 0.00 | 0.23 | 0.23 | 81 | 1010.8 |
| 20260904003501 | 60 | 295 | 0.9 | 0.9 | 0.00 | 0.23 | 0.23 | 80 | 1010.7 |
| 20260904002956 | 60 | 303 | 0.0 | 0.0 | 0.00 | 0.23 | 0.23 | 81 | 1010.6 |
| 20260904002452 | 60 | 307 | 0.0 | 0.0 | 0.00 | 0.23 | 0.23 | 80 | 1010.4 |
| 20260904001950 | 60 | 288 | 0.9 | 0.9 | 0.00 | 0.23 | 0.23 | 76 | 1010.7 |
| 20260904001447 | 61 | 312 | 0.0 | 0.0 | 0.00 | 0.23 | 0.23 | 83 | 1010.8 |
| 20260904000941 | 61 | 314 | 0.0 | 0.0 | 0.00 | 0.23 | 0.23 | 85 | 1010.9 |
| 20260904000441 | 60 | 318 | 0.0 | 0.0 | 0.00 | 0.23 | 0.23 | 86 | 1011.0 |
| 20260903235936 | 60 | 312 | 0.0 | 0.0 | 0.00 | 0.23 | 0.23 | 86 | 1010.9 |
| 20260903235432 | 59 | 255 | 0.9 | 0.9 | 0.00 | 0.23 | 0.23 | 86 | 1011.1 |
| 20260903234932 | 59 | 310 | 0.0 | 0.0 | 0.00 | 0.23 | 0.23 | 89 | 1010.9 |
| 20260903234428 | 59 | 327 | 0.0 | 0.0 | 0.00 | 0.23 | 0.23 | 88 | 1010.7 |
| 20260903233924 | 58 | 307 | 0.0 | 0.0 | 0.00 | 0.23 | 0.23 | 88 | 1011.1 |
| 20260903233420 | 58 | 299 | 0.9 | 0.9 | 0.00 | 0.23 | 0.23 | 89 | 1010.9 |
| 20260903232920 | 58 | 306 | 0.0 | 0.0 | 0.00 | 0.23 | 0.23 | 89 | 1010.8 |
| 20260903232415 | 58 | 359 | 0.0 | 0.0 | 0.00 | 0.23 | 0.23 | 88 | 1010.9 |
| 20260903231915 | 58 | 358 | 0.9 | 0.9 | 0.00 | 0.23 | 0.23 | 88 | 1011.1 |
| 20260903231409 | 58 | 307 | 0.0 | 0.0 | 0.00 | 0.23 | 0.23 | 89 | 1011.1 |
| 20260903230904 | 58 | 307 | 0.0 | 0.9 | 0.00 | 0.23 | 0.23 | 88 | 1011.1 |
| 20260903230400 | 58 | 285 | 0.9 | 0.9 | 0.00 | 0.23 | 0.23 | 86 | 1011.4 |
| 20260903225856 | 58 | 308 | 0.9 | 0.9 | 0.00 | 0.23 | 0.23 | 85 | 1011.3 |
| 20260903225352 | 59 | 309 | 1.7 | 2.6 | 0.00 | 0.23 | 0.23 | 85 | 1011.2 |
| 20260903224848 | 59 | 322 | 2.6 | 2.6 | 0.00 | 0.23 | 0.23 | 84 | 1011.2 |
| 20260903224344 | 59 | 147 | 0.9 | 1.7 | 0.00 | 0.23 | 0.23 | 82 | 1011.3 |
| 20260903223839 | 60 | 297 | 2.6 | 2.6 | 0.00 | 0.23 | 0.23 | 80 | 1011.4 |
| 20260903223338 | 60 | 344 | 0.9 | 0.9 | 0.00 | 0.23 | 0.23 | 82 | 1011.2 |
| 20260903222833 | 61 | 278 | 3.5 | 6.1 | 0.00 | 0.23 | 0.23 | 79 | 1011.0 |
| 20260903222332 | 61 | 305 | 0.9 | 1.7 | 0.00 | 0.23 | 0.23 | 77 | 1010.9 |
| 20260903221827 | 62 | 299 | 2.6 | 4.3 | 0.00 | 0.23 | 0.23 | 77 | 1010.9 |
| 20260903221326 | 63 | 319 | 0.0 | 0.0 | 0.00 | 0.23 | 0.23 | 78 | 1011.1 |
| 20260903220824 | 62 | 297 | 0.0 | 0.0 | 0.00 | 0.23 | 0.23 | 80 | 1010.9 |
| 20260903220319 | 62 | 251 | 0.9 | 0.9 | 0.00 | 0.23 | 0.23 | 78 | 1010.9 |
| 20260903215817 | 62 | 303 | 0.0 | 0.0 | 0.00 | 0.23 | 0.23 | 79 | 1011.0 |
| 20260903215314 | 62 | 314 | 0.0 | 0.9 | 0.00 | 0.23 | 0.23 | 78 | 1010.7 |
| 20260903214811 | 62 | 312 | 0.0 | 0.0 | 0.00 | 0.23 | 0.23 | 78 | 1011.1 |
| 20260903214308 | 62 | 308 | 0.0 | 0.0 | 0.00 | 0.23 | 0.23 | 79 | 1011.0 |
| 20260903213802 | 61 | 344 | 0.0 | 0.9 | 0.00 | 0.23 | 0.23 | 79 | 1011.0 |
| 20260903213258 | 62 | 302 | 0.9 | 0.9 | 0.00 | 0.23 | 0.23 | 79 | 1011.1 |
| 20260903212753 | 62 | 291 | 0.9 | 0.9 | 0.00 | 0.23 | 0.23 | 78 | 1011.1 |
| 20260903212250 | 62 | 311 | 0.0 | 0.0 | 0.00 | 0.23 | 0.23 | 81 | 1011.3 |
| 20260903211743 | 61 | 316 | 0.0 | 0.9 | 0.00 | 0.23 | 0.23 | 81 | 1011.1 |
| 20260903211240 | 61 | 316 | 0.0 | 0.0 | 0.00 | 0.23 | 0.23 | 79 | 1011.4 |
| 20260903210736 | 61 | 316 | 0.0 | 0.0 | 0.00 | 0.23 | 0.23 | 80 | 1011.1 |
| 20260903210231 | 61 | 212 | 1.7 | 1.7 | 0.00 | 0.23 | 0.23 | 81 | 1011.2 |
| 20260903205730 | 61 | 296 | 0.9 | 0.9 | 0.00 | 0.23 | 0.23 | 83 | 1011.1 |
| 20260903205230 | 61 | 307 | 0.0 | 0.0 | 0.00 | 0.23 | 0.23 | 84 | 1011.0 |
| 20260903204725 | 61 | 299 | 0.9 | 1.7 | 0.00 | 0.23 | 0.23 | 82 | 1010.8 |
| 20260903204221 | 61 | 308 | 0.0 | 0.0 | 0.00 | 0.23 | 0.23 | 84 | 1011.0 |
| 20260903203717 | 61 | 290 | 1.7 | 2.6 | 0.00 | 0.23 | 0.23 | 84 | 1011.1 |
| 20260903203212 | 62 | 305 | 0.9 | 0.9 | 0.05 | 0.23 | 0.23 | 85 | 1011.0 |
| 20260903202706 | 62 | 298 | 0.9 | 0.9 | 0.05 | 0.23 | 0.23 | 85 | 1011.0 |
| 20260903202202 | 62 | 277 | 0.9 | 0.9 | 0.05 | 0.23 | 0.23 | 85 | 1010.8 |
| 20260903201701 | 61 | 318 | 0.0 | 0.0 | 0.00 | 0.22 | 0.22 | 87 | 1011.0 |
| 20260903201156 | 61 | 318 | 0.0 | 0.0 | 0.00 | 0.22 | 0.22 | 87 | 1011.0 |
| 20260903200650 | 60 | 311 | 0.0 | 0.0 | 0.00 | 0.22 | 0.22 | 87 | 1011.2 |
| 20260903200146 | 61 | 314 | 0.0 | 0.9 | 0.00 | 0.22 | 0.22 | 86 | 1011.1 |
| 20260903195642 | 61 | 307 | 0.9 | 0.9 | 0.00 | 0.22 | 0.22 | 85 | 1011.1 |
| 20260903195138 | 61 | 290 | 1.7 | 1.7 | 0.00 | 0.22 | 0.22 | 83 | 1011.1 |
| 20260903194637 | 62 | 172 | 0.9 | 1.7 | 0.00 | 0.22 | 0.22 | 83 | 1011.2 |
| 20260903194137 | 62 | 342 | 1.7 | 1.7 | 0.00 | 0.22 | 0.22 | 84 | 1010.9 |
| 20260903193633 | 62 | 286 | 0.0 | 0.9 | 0.00 | 0.22 | 0.22 | 84 | 1010.9 |
| 20260903193129 | 62 | 186 | 1.7 | 1.7 | 0.00 | 0.22 | 0.22 | 84 | 1011.0 |
| 20260903192626 | 61 | 322 | 0.0 | 0.0 | 0.00 | 0.22 | 0.22 | 88 | 1011.2 |
| 20260903192120 | 61 | 325 | 0.0 | 0.0 | 0.00 | 0.22 | 0.22 | 89 | 1011.2 |
| 20260903191616 | 61 | 313 | 0.0 | 0.0 | 0.00 | 0.22 | 0.22 | 89 | 1011.3 |
| 20260903191111 | 60 | 286 | 0.9 | 0.9 | 0.00 | 0.22 | 0.22 | 91 | 1011.3 |
| 20260903190610 | 60 | 305 | 0.0 | 0.9 | 0.00 | 0.22 | 0.22 | 92 | 1011.4 |
| 20260903190105 | 59 | 298 | 0.0 | 0.9 | 0.00 | 0.22 | 0.22 | 93 | 1011.2 |
| 20260903185600 | 59 | 310 | 0.0 | 0.0 | 0.00 | 0.22 | 0.22 | 93 | 1011.5 |
| 20260903185056 | 58 | 269 | 0.9 | 1.7 | 0.00 | 0.22 | 0.22 | 93 | 1011.3 |
| 20260903184552 | 59 | 183 | 1.7 | 1.7 | 0.00 | 0.22 | 0.22 | 92 | 1011.3 |
| 20260903184047 | 60 | 312 | 0.0 | 0.0 | 0.00 | 0.22 | 0.22 | 93 | 1011.5 |
| 20260903183546 | 59 | 204 | 1.7 | 1.7 | 0.07 | 0.22 | 0.22 | 92 | 1011.3 |
| 20260903183041 | 59 | 314 | 0.0 | 0.9 | 0.07 | 0.22 | 0.22 | 92 | 1011.3 |
| 20260903182539 | 59 | 168 | 1.7 | 2.6 | 0.00 | 0.21 | 0.21 | 89 | 1011.3 |
| 20260903182036 | 60 | 314 | 0.9 | 0.9 | 0.00 | 0.21 | 0.21 | 89 | 1011.3 |
| 20260903181534 | 60 | 317 | 0.0 | 0.0 | 0.00 | 0.21 | 0.21 | 90 | 1011.4 |
| 20260903181034 | 61 | 299 | 0.9 | 0.9 | 0.00 | 0.21 | 0.21 | 90 | 1010.9 |
| 20260903180530 | 61 | 312 | 0.0 | 0.0 | 0.00 | 0.21 | 0.21 | 91 | 1011.0 |
| 20260903180029 | 62 | 304 | 0.9 | 0.9 | 0.00 | 0.21 | 0.21 | 90 | 1011.2 |
| 20260903175528 | 62 | 305 | 0.0 | 0.0 | 0.00 | 0.21 | 0.21 | 91 | 1011.0 |
| 20260903175028 | 61 | 307 | 0.0 | 0.0 | 0.00 | 0.21 | 0.21 | 89 | 1011.0 |
| 20260903174523 | 61 | 293 | 0.0 | 0.9 | 0.00 | 0.21 | 0.21 | 92 | 1010.9 |
| 20260903174018 | 60 | 299 | 0.0 | 0.0 | 0.00 | 0.21 | 0.21 | 94 | 1010.8 |
| 20260903173512 | 60 | 311 | 0.0 | 0.0 | 0.00 | 0.21 | 0.21 | 97 | 1010.8 |
| 20260903173009 | 59 | 318 | 0.0 | 0.0 | 0.00 | 0.21 | 0.21 | 98 | 1010.9 |
| 20260903172503 | 59 | 282 | 0.9 | 0.9 | 0.00 | 0.21 | 0.21 | 99 | 1010.8 |
| 20260903171959 | 58 | 23 | 0.9 | 0.9 | 0.00 | 0.21 | 0.21 | 99 | 1011.0 |
| 20260903171454 | 58 | 303 | 0.0 | 0.0 | 0.00 | 0.21 | 0.21 | 99 | 1011.1 |
| 20260903170948 | 58 | 303 | 0.0 | 0.0 | 0.00 | 0.21 | 0.21 | 99 | 1011.2 |
| 20260903170443 | 58 | 303 | 0.0 | 0.0 | 0.00 | 0.21 | 0.21 | 99 | 1011.2 |
| 20260903165942 | 57 | 303 | 0.0 | 0.0 | 0.00 | 0.21 | 0.21 | 99 | 1011.3 |
| 20260903165441 | 57 | 302 | 0.0 | 0.0 | 0.00 | 0.21 | 0.21 | 99 | 1011.3 |
| 20260903164937 | 57 | 319 | 0.0 | 0.0 | 0.00 | 0.21 | 0.21 | 99 | 1011.2 |
| 20260903164432 | 57 | 301 | 0.0 | 0.0 | 0.00 | 0.21 | 0.21 | 99 | 1011.4 |
| 20260903163931 | 56 | 333 | 0.0 | 0.9 | 0.00 | 0.21 | 0.21 | 99 | 1011.4 |
| 20260903163427 | 58 | 321 | 0.0 | 0.0 | 0.00 | 0.21 | 0.21 | 99 | 1011.3 |
| 20260903162923 | 58 | 321 | 0.0 | 0.0 | 0.00 | 0.21 | 0.21 | 99 | 1011.4 |
| 20260903162420 | 57 | 319 | 0.0 | 0.0 | 0.00 | 0.21 | 0.21 | 99 | 1011.4 |